[[{"header":{"parameterUnit":"m.s-1","parameterCategory":1,"la1":30.2991,"la2":30.254,"lo1":-89.0895,"lo2":-89.0444,"dy":0.0017,"dx":0.0017,"nx":28,"ny":28,"refTime":"2025-07-15T09:00:00:Z","depth":0,"parameterNumber":2,"parameterNumberName":"U-component_of_WINDS"},"data":[0,0,0,0,0,0,0,0,0,0,0,0,0,0,0,0,0,0,0,0,0,0,0,0,0,0,0,0,0,0,0,0,0,0,0,0,0,0,0,0,0,0,0,0,0,0,0,0,0,0,0,0,0,0,0,0,0,0,-1.1791,-1.1793,0,-1.1933,-1.1935,-1.1936,-1.2026,-1.2027,-1.2028,-1.2028,-1.2173,-1.2176,-1.218,0,0,0,0,0,0,0,0,0,0,0,0,0,-1.1601,-1.1604,-1.1791,-1.1793,-1.1795,-1.1933,-1.1935,-1.1937,-1.2026,-1.2027,-1.2028,-1.2028,-1.2172,-1.2176,-1.218,0,0,0,0,0,0,0,0,0,0,0,0,0,-1.1707,-1.1605,-1.1791,-1.1856,-1.1863,-1.1932,-1.1935,-1.1937,-1.2026,-1.2027,-1.2028,-1.2029,-1.2171,-1.2176,-1.2181,-1.2196,0,0,-1.2196,-1.2198,0,0,0,0,0,0,0,0,-1.1701,-1.1714,-1.1845,-1.1852,-1.186,-1.1963,-1.1921,-1.2024,-1.2026,-1.1964,-1.2028,-1.2029,-1.2102,-1.2113,-1.2138,-1.2202,-1.2209,-1.2196,-1.2199,-1.2202,-1.2203,0,0,0,0,0,0,0,-1.1693,-1.1708,-1.1847,-1.1846,-1.1856,-1.1879,-1.1895,-1.1941,-1.2027,-1.197,-1.1977,-1.1992,-1.2107,-1.2133,-1.2142,-1.2211,-1.2196,-1.2201,-1.2204,-1.2206,-1.2299,-1.2298,0,0,0,0,0,0,-1.1675,-1.1701,-1.1843,-1.1851,-1.1781,-1.1882,-1.19,-1.1929,-1.2027,-1.2043,-1.1991,-1.1996,-1.2124,-1.2136,-1.2148,-1.2174,-1.2202,-1.2206,-1.2209,-1.2299,-1.2299,-1.2298,0,0,0,0,0,0,-1.1671,-1.1687,-1.1837,-1.1778,-1.1799,-1.1884,-1.1916,-1.1931,-1.1958,-1.2043,-1.2059,-1.2002,-1.2125,-1.214,-1.2184,-1.218,-1.2209,-1.2213,-1.23,-1.2299,-1.2298,-1.2225,0,0,0,0,0,0,-1.1665,-1.1685,-1.169,-1.1778,-1.1802,-1.187,-1.1916,-1.1934,-1.1966,-1.1973,-1.2057,-1.2072,-1.2127,-1.2176,-1.2189,-1.2187,-1.2217,-1.2301,-1.23,-1.2299,-1.2228,-1.2221,-1.2216,0,0,0,0,0,-1.1658,-1.1663,-1.169,-1.1707,-1.1811,-1.1869,-1.1883,-1.1946,-1.1965,-1.1972,-1.2028,-1.207,-1.2179,-1.218,-1.2195,-1.2195,-1.2301,-1.23,-1.2299,-1.223,-1.2223,-1.2216,0,0,0,0,0,0,-1.1572,-1.1676,-1.1707,-1.1741,-1.1796,-1.1884,-1.1895,-1.1935,-1.1986,-1.199,-1.2066,-1.2085,-1.2121,-1.2163,-1.2162,-1.2217,-1.2245,-1.2247,-1.2188,-1.2181,-1.2175,-1.2164,-1.2221,0,0,0,0,0,-1.1557,-1.1596,-1.1684,-1.1706,-1.1732,-1.1809,-1.1836,-1.188,-1.194,-1.1964,-1.2023,-1.2079,-1.2127,-1.2157,-1.2205,-1.2235,-1.2256,-1.2243,-1.2237,-1.2232,-1.2232,-1.2254,-1.225,-1.2294,-1.2294,-1.2294,0,0,-1.1527,-1.1588,-1.1607,-1.169,-1.1738,-1.1777,-1.1827,-1.1866,-1.1896,-1.197,-1.2015,-1.206,-1.2129,-1.2167,-1.2186,-1.2202,-1.2225,-1.223,-1.2225,-1.2229,-1.2252,-1.2248,-1.2244,-1.2293,-1.2293,-1.2294,0,0,-1.1491,-1.1541,-1.1565,-1.1613,-1.1685,-1.1737,-1.1743,-1.1826,-1.186,-1.1906,-1.1963,-1.2001,-1.208,-1.2128,-1.2163,-1.2149,-1.219,-1.2163,-1.2132,-1.2152,-1.2149,-1.2146,-1.2143,-1.214,-1.2164,-1.2163,-1.2163,0,-1.1443,-1.1504,-1.1572,-1.1609,-1.1644,-1.1715,-1.1741,-1.1784,-1.1868,-1.1891,-1.1909,-1.2013,-1.2064,-1.2114,-1.2112,-1.2137,-1.2147,-1.2153,-1.2144,-1.2142,-1.214,-1.2138,-1.2136,-1.216,-1.216,-1.216,-1.2161,0,-1.1443,-1.1485,-1.1496,-1.1577,-1.1614,-1.1644,-1.1719,-1.1749,-1.1791,-1.1841,-1.1889,-1.1954,-1.2017,-1.2033,-1.2074,-1.2091,-1.2099,-1.2129,-1.2159,-1.2131,-1.213,-1.213,-1.2154,-1.2156,-1.2157,-1.2158,0,0,-1.1354,-1.1475,-1.1478,-1.1517,-1.1604,-1.1638,-1.1673,-1.1736,-1.1761,-1.1818,-1.185,-1.1918,-1.1948,-1.1987,-1.2034,-1.2052,-1.204,-1.2081,-1.2083,-1.2071,-1.2065,-1.2042,-1.204,-1.2068,-1.2068,-1.2068,-1.206,0,-1.1332,-1.1399,-1.1463,-1.1507,-1.1547,-1.1617,-1.1648,-1.1705,-1.1754,-1.1797,-1.1851,-1.1899,-1.1933,-1.1958,-1.1979,-1.2037,-1.204,-1.2038,-1.21,-1.2101,-1.208,-1.2039,-1.2014,-1.2003,-1.206,-1.206,-1.206,0,-1.1314,-1.1369,-1.1417,-1.1503,-1.1522,-1.1549,-1.1614,-1.1653,-1.1721,-1.1756,-1.1801,-1.1852,-1.1895,-1.1921,-1.1982,-1.198,-1.201,-1.2042,-1.2044,-1.2051,-1.2078,-1.2046,-1.2,-1.1998,-1.206,-1.206,-1.206,0,-1.1245,-1.1332,-1.1372,-1.1403,-1.1504,-1.1522,-1.1565,-1.1633,-1.1668,-1.1726,-1.175,-1.1811,-1.1844,-1.1891,-1.1958,-1.1971,-1.2013,-1.2044,-1.2044,-1.2042,-1.2048,-1.2047,-1.2007,-1.2067,-1.2067,-1.2067,-1.2067,0,-1.1213,-1.124,-1.1343,-1.1368,-1.1401,-1.1476,-1.1508,-1.1557,-1.1618,-1.1655,-1.1719,-1.1753,-1.1839,-1.1883,-1.1936,-1.198,-1.1994,-1.2024,-1.2038,-1.2018,-1.2015,-1.2038,-1.2041,-1.2067,-1.2067,-1.2067,-1.2067,0,-1.1142,-1.1212,-1.1261,-1.1354,-1.1378,-1.1398,-1.1478,-1.1506,-1.156,-1.1606,-1.1621,-1.1706,-1.1762,-1.1834,-1.1912,-1.1948,-1.1986,-1.2007,-1.1963,-1.1971,-1.1967,-1.1966,-1.194,-1.1941,-1.2,-1.1999,-1.1999,0,-1.1116,-1.1139,-1.1235,-1.1264,-1.1306,-1.1352,-1.1389,-1.1465,-1.1501,-1.1582,-1.16,-1.1661,-1.1714,-1.1801,-1.187,-1.1931,-1.1954,-1.1941,-1.1964,-1.1945,-1.1955,-1.1953,-1.1957,-1.1935,-1.1934,-1.1933,-1.1932,0,-1.1064,-1.1099,-1.1149,-1.1212,-1.1255,-1.1308,-1.1364,-1.1385,-1.1473,-1.1511,-1.1569,-1.161,-1.1692,-1.1752,-1.1823,-1.1869,-1.1916,-1.1925,-1.1929,-1.1908,-1.1882,-1.1898,-1.1947,-1.1925,-1.1926,-1.1926,-1.1927,-1.1927,-1.1016,-1.104,-1.1112,-1.1167,-1.1218,-1.127,-1.1301,-1.136,-1.141,-1.1482,-1.1525,-1.1582,-1.1654,-1.1754,-1.1798,-1.1845,-1.1863,-1.1867,-1.1868,-1.1868,-1.1863,-1.1875,-1.1858,-1.1859,-1.1859,-1.1859,-1.186,0,-1.0968,-1.1018,-1.1068,-1.1146,-1.119,-1.1231,-1.1297,-1.1331,-1.138,-1.1442,-1.1494,-1.1563,-1.1623,-1.1698,-1.1764,-1.1787,-1.1811,-1.1802,-1.1801,-1.1811,-1.1843,-1.1833,-1.1782,-1.1782,-1.1782,-1.1782,-1.1782,-1.1782,-1.0948,-1.0992,-1.1035,-1.1106,-1.1158,-1.1214,-1.1249,-1.1298,-1.1348,-1.1422,-1.1472,-1.1521,-1.159,-1.1662,-1.172,-1.1741,-1.1762,-1.1747,-1.1774,-1.1802,-1.1809,-1.1815,-1.1807,-1.1751,-1.1751,-1.1739,-1.1739,-1.1739]},{"header":{"parameterUnit":"m.s-1","parameterCategory":1,"la1":30.2991,"la2":30.254,"lo1":-89.0895,"lo2":-89.0444,"dy":0.0017,"dx":0.0017,"nx":28,"ny":28,"refTime":"2025-07-15T09:00:00:Z","depth":0,"parameterNumber":3,"parameterNumberName":"V-component_of_WINDS"},"data":[0,0,0,0,0,0,0,0,0,0,0,0,0,0,0,0,0,0,0,0,0,0,0,0,0,0,0,0,0,0,0,0,0,0,0,0,0,0,0,0,0,0,0,0,0,0,0,0,0,0,0,0,0,0,0,0,0,0,4.2369,4.2368,0,4.2294,4.2293,4.2292,4.2258,4.2258,4.2258,4.2258,4.2172,4.217,4.2168,0,0,0,0,0,0,0,0,0,0,0,0,0,4.2474,4.2472,4.2369,4.2368,4.2367,4.2294,4.2293,4.2292,4.2258,4.2258,4.2258,4.2258,4.2173,4.217,4.2167,0,0,0,0,0,0,0,0,0,0,0,0,0,4.2416,4.2471,4.2369,4.2341,4.2338,4.2294,4.2293,4.2292,4.2258,4.2258,4.2258,4.2258,4.2174,4.217,4.2167,4.2142,0,0,4.2156,4.2155,0,0,0,0,0,0,0,0,4.2419,4.2412,4.2346,4.2343,4.234,4.2286,4.2298,4.2241,4.2258,4.2288,4.2258,4.2258,4.2209,4.2203,4.2188,4.2138,4.2134,4.2156,4.2154,4.2152,4.2151,0,0,0,0,0,0,0,4.2423,4.2415,4.2339,4.2345,4.2341,4.233,4.2322,4.2287,4.2248,4.2285,4.2283,4.2275,4.2207,4.2192,4.2186,4.2133,4.2156,4.2153,4.2151,4.2149,4.2057,4.2056,0,0,0,0,0,0,4.2433,4.2419,4.2341,4.2337,4.2381,4.2328,4.2319,4.2303,4.2249,4.2241,4.2275,4.2274,4.2198,4.219,4.2183,4.2149,4.2152,4.2149,4.2147,4.2057,4.2057,4.2056,0,0,0,0,0,0,4.2436,4.2427,4.2344,4.2377,4.2366,4.2326,4.2308,4.2301,4.2286,4.2241,4.2233,4.2267,4.2197,4.2188,4.2153,4.2146,4.2147,4.2144,4.2057,4.2057,4.2057,4.2083,0,0,0,0,0,0,4.2439,4.2428,4.242,4.2377,4.2364,4.2319,4.2308,4.2299,4.2281,4.2278,4.2231,4.2223,4.2197,4.2158,4.2149,4.2141,4.2141,4.2058,4.2057,4.2057,4.2082,4.2083,4.2084,0,0,0,0,0,4.2443,4.2429,4.242,4.2411,4.2354,4.2319,4.2311,4.2283,4.228,4.2271,4.2242,4.2225,4.2148,4.2155,4.2144,4.2135,4.2058,4.2057,4.2057,4.2082,4.2083,4.2084,0,0,0,0,0,0,4.2469,4.2423,4.2412,4.2385,4.2356,4.2313,4.23,4.2285,4.2255,4.2253,4.2217,4.2207,4.2175,4.2151,4.216,4.2107,4.2101,4.2098,4.2124,4.2125,4.2126,4.2131,4.2138,0,0,0,0,0,4.2472,4.245,4.2409,4.2389,4.2375,4.234,4.2324,4.2305,4.2273,4.2259,4.2228,4.2194,4.2162,4.2142,4.211,4.2079,4.2066,4.2066,4.2067,4.2068,4.2066,4.2045,4.2044,4.2054,4.2054,4.2054,0,0,4.2478,4.2449,4.2437,4.2394,4.2369,4.2344,4.233,4.2304,4.2284,4.2254,4.222,4.2196,4.2156,4.2122,4.2105,4.2101,4.2061,4.2067,4.2069,4.2065,4.2045,4.2044,4.2043,4.2054,4.2054,4.2054,0,0,4.2474,4.2452,4.2432,4.2408,4.2372,4.2349,4.2344,4.2303,4.2287,4.2252,4.2229,4.2203,4.2149,4.2122,4.21,4.2086,4.2068,4.2076,4.208,4.2061,4.206,4.2059,4.2053,4.2051,4.2074,4.2074,4.2074,0,4.2485,4.2449,4.2423,4.2399,4.2379,4.2354,4.2332,4.2308,4.2263,4.2248,4.2245,4.2177,4.2148,4.2107,4.2104,4.2088,4.2079,4.2081,4.2063,4.2062,4.206,4.2054,4.2051,4.2075,4.2075,4.2075,4.2075,0,4.2463,4.2438,4.2426,4.2386,4.2364,4.2341,4.2309,4.229,4.2273,4.2249,4.2213,4.2177,4.2138,4.2126,4.2108,4.2082,4.208,4.207,4.2064,4.2061,4.2054,4.2051,4.2077,4.2077,4.2076,4.2076,0,0,4.2475,4.2421,4.2416,4.2397,4.2355,4.2334,4.2308,4.2272,4.2256,4.2225,4.2201,4.2156,4.2146,4.2122,4.21,4.2084,4.2072,4.2075,4.2073,4.2075,4.2039,4.2046,4.2044,4.2061,4.206,4.206,4.2042,0,4.2465,4.2422,4.2397,4.2362,4.2338,4.2313,4.229,4.226,4.2236,4.2209,4.2182,4.2151,4.2141,4.2126,4.2109,4.2078,4.2065,4.2079,4.2035,4.2034,4.2046,4.2041,4.2048,4.2033,4.2039,4.2039,4.2038,0,4.2449,4.2421,4.2385,4.2345,4.2334,4.2314,4.2279,4.2254,4.2218,4.2202,4.2176,4.2154,4.2123,4.2119,4.2073,4.2084,4.2064,4.2046,4.2044,4.2039,4.2036,4.2033,4.2028,4.2026,4.2034,4.2034,4.2034,0,4.246,4.2413,4.2385,4.237,4.2323,4.2309,4.2288,4.2253,4.2233,4.22,4.2186,4.2149,4.2129,4.2099,4.2067,4.2068,4.2024,4.2018,4.2007,4.2008,4.1999,4.1999,4.1989,4.1987,4.1987,4.1987,4.1987,0,4.2452,4.243,4.239,4.2373,4.2347,4.2317,4.2291,4.2268,4.2236,4.2212,4.2186,4.2163,4.2123,4.2093,4.2067,4.2032,4.2023,4.2007,4.2,4.2009,4.2011,4.1995,4.1995,4.1987,4.1987,4.1987,4.1987,0,4.246,4.2432,4.24,4.2359,4.2348,4.233,4.2293,4.2274,4.2249,4.2218,4.2209,4.2169,4.2133,4.2098,4.2049,4.2031,4.1996,4.1988,4.2009,4.2006,4.1996,4.1997,4.1975,4.1969,4.1973,4.1973,4.1973,0,4.2457,4.244,4.2397,4.2381,4.2361,4.2334,4.2314,4.2283,4.2262,4.2219,4.2204,4.2167,4.2136,4.2078,4.2043,4.2004,4.1994,4.1989,4.1988,4.1997,4.1992,4.1994,4.1991,4.1989,4.1989,4.199,4.199,0,4.2453,4.244,4.2413,4.2381,4.2359,4.2331,4.2302,4.2289,4.2252,4.2229,4.2193,4.2169,4.212,4.2082,4.204,4.2014,4.1995,4.199,4.1986,4.1994,4.2007,4.1999,4.2011,4.1991,4.1991,4.1991,4.1991,4.1991,4.2454,4.2438,4.2406,4.2376,4.2352,4.2325,4.2305,4.2279,4.225,4.2209,4.2192,4.2155,4.2117,4.2059,4.2034,4.2002,4.1997,4.1991,4.1989,4.1988,4.1989,4.2013,4.1994,4.1994,4.1994,4.1994,4.1994,0,4.2449,4.2427,4.24,4.2362,4.2338,4.2325,4.2292,4.2272,4.2241,4.2209,4.2179,4.2137,4.21,4.2062,4.2022,4.2004,4.1994,4.1994,4.1995,4.1989,4.1996,4.2004,4.2003,4.2003,4.2003,4.2003,4.2003,4.2003,4.2443,4.2414,4.2397,4.2355,4.2332,4.2299,4.2281,4.2255,4.223,4.2185,4.2155,4.2132,4.2096,4.2053,4.2017,4.2006,4.1992,4.1995,4.1982,4.1989,4.1988,4.1988,4.1995,4.1993,4.1993,4.1977,4.1977,4.1977]}]]